Wetbulb
73.48 75.73 77.39 77.63 76.74 76.69 76.99 76.96 76.93 77.15 76.82 76.78 76.08 75.34 75.15 74.85 74.96 74.57 75.42 75.40 75.10 75.29 75.32 75.23 75.48 75.18 74.51 74.25 74.41 74.25 74.60 74.70 75.13 75.83 76.05 76.43 76.39 75.98 75.39 76.59 76.62 75.91 76.74
74.52 75.99 77.52 77.82 77.68 77.01 76.99 77.05 77.08 77.34 76.76 76.35 76.49 75.62 75.21 74.99 75.40 75.20 75.34 74.85 74.71 74.65 74.99 75.18 74.90 75.29 75.04 74.21 73.79 74.10 74.54 74.26 73.94 74.79 75.48 75.67 77.03 76.83 75.89 75.28 76.29 76.56 76.70
74.55 76.02 76.53 77.57 77.94 77.23 77.09 77.00 76.75 76.46 75.98 75.84 75.89 75.57 75.10 75.04 75.29 75.29 75.01 74.38 74.63 74.82 74.71 74.85 75.23 75.04 74.73 74.76 75.12 75.03 75.06 75.04 74.43 74.38 74.87 75.18 76.16 76.46 76.61 76.09 75.48 76.67 76.54
74.80 76.08 76.12 77.47 78.01 77.21 77.31 77.39 77.34 76.61 76.01 75.73 75.62 75.59 75.70 75.45 75.21 75.15 74.79 74.46 74.60 74.74 74.93 74.79 74.65 74.99 74.76 75.07 74.82 74.40 74.35 74.98 75.63 74.94 73.83 75.18 75.64 76.02 76.51 76.74 76.24 75.38 75.66
75.15 76.00 76.46 77.85 78.17 76.83 76.72 76.95 76.94 77.34 76.44 75.95 76.01 76.12 76.15 76.06 76.39 76.36 75.87 75.37 74.82 74.96 75.37 75.32 75.29 75.46 75.07 74.74 74.82 74.78 74.46 74.16 75.58 74.02 74.28 75.39 77.14 75.74 75.57 76.06 76.43 76.46 75.39
75.31 75.52 77.06 77.69 77.19 76.92 76.29 76.18 76.24 76.55 76.65 76.36 76.63 76.33 76.33 76.11 75.81 75.68 75.65 75.57 75.48 75.65 74.99 75.24 75.32 75.73 75.73 75.04 74.65 75.06 74.92 74.49 74.90 75.01 73.48 73.82 74.89 74.33 75.89 76.14 75.37 76.31 76.40
75.16 75.08 76.43 77.68 77.63 77.62 76.61 76.16 76.38 76.38 76.11 76.39 76.58 76.31 75.92 75.98 75.54 75.59 75.59 75.65 75.79 75.81 75.34 75.40 75.76 76.07 76.06 75.45 75.01 75.00 75.16 75.03 76.03 76.37 73.94 72.24 74.23 73.89 76.43 76.34 76.28 76.11 76.26
74.39 74.96 75.65 77.09 77.45 76.82 76.32 76.00 76.11 76.22 76.38 76.42 76.42 76.31 76.01 75.98 76.25 75.92 75.76 76.09 75.81 75.87 75.98 76.17 75.56 76.12 76.02 75.65 75.37 75.28 74.76 75.11 75.18 75.73 74.94 74.11 72.88 73.33 75.75 76.18 76.39 76.48 76.24
74.32 74.83 75.30 75.84 76.59 76.68 76.32 76.25 76.25 76.23 76.42 76.42 76.28 76.15 75.98 75.92 76.23 76.14 75.92 76.00 76.06 75.98 76.23 76.09 76.22 76.01 75.87 75.78 75.34 75.71 75.62 75.58 75.86 75.84 74.57 74.95 72.76 73.08 75.82 76.38 76.39 76.91 76.49
73.57 74.32 75.02 75.67 75.62 75.64 75.40 76.57 76.60 76.38 76.50 76.48 76.56 76.26 76.31 76.31 76.28 76.17 76.57 76.67 76.28 76.41 76.41 76.48 76.18 76.23 76.07 76.10 75.40 75.56 75.99 75.97 75.64 75.21 75.62 75.82 73.76 73.60 74.01 76.15 76.95 76.51 76.83
73.05 73.95 74.80 75.62 77.10 76.36 75.81 76.00 77.41 76.90 76.94 76.81 76.48 76.48 76.96 76.44 75.67 75.68 77.00 75.99 76.05 75.94 75.92 76.26 76.34 76.80 77.01 76.30 75.87 76.00 75.97 75.45 75.70 75.18 74.95 75.44 74.35 74.59 74.69 74.76 76.22 76.27 76.51
71.74 73.56 74.81 74.76 75.71 76.25 75.68 76.12 76.44 76.34 76.41 76.60 76.79 77.20 76.59 75.74 76.14 75.91 76.31 76.41 76.27 75.80 76.33 76.28 76.83 76.52 75.87 76.32 75.39 75.40 74.96 75.31 75.50 74.74 74.54 75.37 74.93 75.57 75.77 75.15 75.85 75.50 76.38
71.92 73.33 74.68 75.07 75.36 75.02 75.26 75.70 75.81 76.21 76.27 76.73 77.57 77.38 76.48 75.84 76.58 75.96 75.75 75.78 76.05 76.06 75.62 76.00 76.40 76.46 75.84 76.47 75.36 75.21 74.89 75.53 75.43 75.08 75.58 75.75 75.42 75.63 76.57 75.99 76.31 76.16 76.13
71.60 72.94 73.92 75.00 75.18 75.21 75.74 75.66 75.59 75.77 75.90 75.80 76.02 76.96 76.21 75.39 75.86 75.78 75.37 75.38 75.97 75.76 75.99 76.47 76.28 77.15 76.49 76.44 76.26 76.50 75.92 75.96 75.65 75.12 75.34 75.80 75.96 76.55 76.45 76.36 76.44 76.54 76.79
71.08 72.41 73.51 74.81 75.30 75.37 75.63 75.47 75.73 75.34 75.56 75.40 75.78 76.40 76.34 75.64 75.32 75.57 75.38 75.44 75.78 76.25 76.28 76.40 76.46 76.32 76.03 76.09 76.17 75.61 75.24 75.27 76.16 75.54 75.81 76.55 76.30 76.48 76.79 77.23 77.58 76.67 76.66
71.67 72.03 73.43 74.21 75.23 75.29 75.11 75.61 75.01 74.93 75.25 75.81 75.34 75.47 76.73 76.11 75.23 74.83 75.14 75.27 75.75 76.43 76.71 76.78 76.83 76.53 76.07 75.79 75.53 75.53 75.16 75.01 75.12 76.12 76.18 76.74 77.08 76.78 76.68 77.20 77.63 77.93 77.44
72.51 73.46 73.42 74.14 74.62 74.89 75.01 75.22 74.99 74.46 74.27 74.49 75.12 75.94 76.64 76.35 75.73 75.37 74.84 75.07 75.73 76.44 77.03 77.09 77.09 76.81 76.30 76.03 75.78 75.73 75.86 75.62 75.30 75.93 76.27 76.38 76.50 76.86 77.03 77.30 77.45 78.06 78.41
73.65 73.65 74.35 74.08 74.29 74.55 74.40 74.54 74.07 74.03 74.15 74.27 74.67 75.81 76.26 76.46 76.20 75.37 74.65 75.00 76.09 76.42 76.45 76.41 76.31 76.96 75.79 75.91 75.53 75.83 75.89 76.14 76.29 76.14 75.90 75.12 75.83 76.18 77.38 77.39 77.33 77.89 78.30
73.78 73.99 73.74 74.28 74.15 74.19 74.29 73.85 73.76 74.30 73.77 74.45 75.61 75.83 76.40 76.18 76.04 75.73 75.07 75.40 76.49 75.67 75.73 75.99 76.36 76.35 76.04 76.49 75.87 76.84 76.70 75.98 76.38 76.04 75.84 76.03 76.32 76.19 76.53 77.00 77.35 77.21 77.52
73.72 73.95 74.14 74.05 74.28 74.38 73.70 73.52 72.97 73.00 73.26 74.30 74.95 75.71 76.32 76.35 76.43 76.28 75.78 76.02 76.31 75.60 74.96 75.14 75.42 76.79 75.87 75.47 74.47 74.06 75.34 75.97 76.15 76.18 75.93 75.90 75.46 75.89 76.34 76.85 77.17 77.04 77.38
72.39 72.82 73.49 73.59 75.38 73.80 72.60 71.65 71.78 71.84 73.15 73.91 74.79 75.69 76.18 76.30 76.37 76.46 75.98 75.97 76.22 75.37 75.36 75.53 74.79 74.63 74.12 75.73 73.59 72.70 73.65 74.94 75.09 75.51 76.09 75.93 75.49 75.71 75.91 75.77 76.65 76.77 76.54
70.61 71.26 72.80 73.61 74.63 74.43 73.75 73.78 73.77 74.12 74.11 74.49 74.93 75.09 75.46 75.69 76.09 75.95 75.76 75.56 76.02 75.18 75.60 75.38 74.79 72.88 73.33 74.17 72.61 73.02 68.35 69.66 72.35 74.25 74.85 74.81 75.04 75.48 75.02 74.80 75.43 76.16 76.73
70.36 71.06 71.98 74.01 74.65 74.93 75.48 74.25 74.25 74.44 73.99 73.37 73.80 74.05 74.83 75.21 75.54 76.09 76.18 75.84 76.79 75.65 74.27 75.21 74.92 73.97 71.75 73.46 75.16 73.04 67.35 66.43 69.30 72.35 73.51 74.33 74.86 74.76 75.07 75.01 74.56 75.01 75.98
70.48 71.61 71.73 73.44 74.32 74.34 75.37 74.57 74.69 72.64 72.10 73.83 74.51 74.71 74.96 75.37 75.57 75.93 76.28 76.60 76.08 75.20 75.55 74.73 74.96 74.32 74.60 71.41 73.00 73.47 73.26 72.31 67.82 67.33 71.48 72.35 73.91 73.98 74.52 74.72 74.70 74.63 74.84
71.24 71.29 71.73 72.74 73.49 74.56 75.09 75.20 73.59 73.97 74.00 74.42 74.42 75.21 75.37 76.20 75.08 75.26 75.83 75.53 75.73 74.79 75.46 75.10 74.82 74.42 73.74 72.28 71.81 72.38 72.76 72.56 72.27 69.28 67.35 69.60 72.18 73.28 73.56 73.68 74.12 74.45 74.91
71.34 71.30 71.85 72.68 73.70 73.69 74.02 74.08 75.09 74.71 74.78 73.70 74.00 72.59 73.39 73.98 74.29 74.70 74.61 75.21 75.41 74.38 73.84 74.21 74.89 74.92 74.84 73.62 73.11 73.38 71.93 70.79 70.59 69.40 69.06 70.04 70.09 71.98 73.38 73.82 73.80 73.98 74.69
MSLP
1014.41 1014.54 1014.72 1014.84 1015.11 1015.54 1015.64 1015.80 1016.05 1016.25 1016.52 1016.82 1017.00 1017.26 1017.32 1017.50 1017.55 1017.72 1017.92 1017.98 1018.04 1018.04 1018.00 1018.04 1018.20 1018.38 1018.55 1018.60 1018.81 1018.96 1018.98 1018.99 1018.96 1018.90 1018.78 1018.74 1018.74 1018.86 1018.92 1018.96 1018.82 1018.62 1019.09
1013.89 1014.54 1014.86 1015.05 1015.19 1015.62 1015.80 1015.99 1016.07 1016.43 1016.70 1016.89 1017.08 1017.34 1017.40 1017.60 1017.79 1017.95 1018.10 1018.21 1018.26 1018.33 1018.35 1018.36 1018.39 1018.48 1018.69 1018.91 1019.03 1019.19 1019.30 1019.32 1019.26 1019.25 1019.18 1019.12 1018.98 1019.06 1019.19 1019.31 1019.16 1019.24 1019.39
1013.80 1014.38 1014.78 1015.12 1015.40 1015.79 1016.03 1016.32 1016.40 1016.70 1016.97 1017.07 1017.24 1017.47 1017.58 1017.68 1017.90 1018.08 1018.22 1018.35 1018.46 1018.54 1018.55 1018.55 1018.66 1018.72 1018.74 1018.86 1019.04 1019.18 1019.32 1019.46 1019.50 1019.46 1019.48 1019.07 1019.08 1019.36 1019.37 1019.34 1019.49 1019.60 1019.72
1013.46 1014.30 1014.62 1015.13 1015.50 1015.95 1016.13 1016.34 1016.65 1016.85 1017.11 1017.27 1017.43 1017.65 1017.74 1017.86 1017.98 1018.17 1018.32 1018.46 1018.43 1018.56 1018.65 1018.66 1018.70 1018.78 1018.86 1018.91 1018.98 1019.19 1019.35 1019.44 1019.60 1019.87 1019.68 1019.45 1019.12 1019.75 1019.64 1019.58 1019.62 1019.80 1019.92
1013.69 1014.32 1014.67 1015.08 1015.66 1016.08 1016.38 1016.58 1016.95 1017.17 1017.33 1017.45 1017.58 1017.72 1017.86 1018.01 1018.11 1018.16 1018.38 1018.58 1018.64 1018.62 1018.63 1018.66 1018.70 1018.82 1018.82 1018.87 1018.89 1019.04 1019.28 1019.44 1019.60 1019.64 1019.74 1019.94 1019.72 1019.79 1019.99 1019.89 1019.86 1019.97 1020.08
1014.04 1014.43 1015.03 1015.38 1015.82 1016.21 1016.61 1016.87 1017.15 1017.36 1017.53 1017.65 1017.76 1017.81 1017.91 1018.09 1018.21 1018.36 1018.45 1018.53 1018.66 1018.60 1018.57 1018.56 1018.58 1018.61 1018.70 1018.82 1018.92 1018.96 1019.13 1019.30 1019.41 1019.31 1019.54 1019.72 1019.66 1020.03 1019.94 1020.06 1020.04 1020.10 1020.22
1014.19 1014.62 1015.19 1015.80 1016.00 1016.30 1016.71 1017.00 1017.24 1017.46 1017.63 1017.76 1017.88 1017.97 1018.08 1018.18 1018.24 1018.33 1018.46 1018.62 1018.68 1018.68 1018.74 1018.72 1018.67 1018.64 1018.70 1018.77 1018.89 1018.94 1019.01 1019.12 1019.04 1019.12 1019.38 1019.48 1019.43 1019.92 1019.88 1020.01 1020.08 1020.20 1020.30
1014.30 1014.82 1015.33 1016.02 1016.20 1016.48 1016.85 1017.14 1017.36 1017.51 1017.64 1017.77 1017.93 1018.02 1018.11 1018.22 1018.26 1018.37 1018.40 1018.40 1018.57 1018.70 1018.76 1018.75 1018.76 1018.71 1018.80 1018.75 1018.85 1018.96 1019.09 1019.11 1018.81 1018.92 1019.14 1019.27 1019.55 1019.87 1019.89 1019.96 1020.08 1020.19 1020.36
1014.48 1014.95 1015.42 1015.85 1016.29 1016.65 1016.95 1017.22 1017.44 1017.57 1017.65 1017.76 1017.89 1018.02 1018.11 1018.18 1018.27 1018.36 1018.44 1018.46 1018.45 1018.55 1018.57 1018.69 1018.72 1018.72 1018.82 1018.77 1018.79 1018.92 1019.05 1019.10 1018.82 1018.82 1018.94 1019.08 1019.60 1019.92 1019.94 1019.96 1020.15 1020.19 1020.32
1014.86 1015.04 1015.31 1015.71 1016.12 1016.51 1016.79 1017.21 1017.42 1017.61 1017.70 1017.76 1017.88 1018.00 1018.12 1018.22 1018.25 1018.26 1018.31 1018.38 1018.44 1018.44 1018.48 1018.61 1018.64 1018.66 1018.78 1018.88 1018.81 1018.83 1018.88 1018.90 1018.58 1018.58 1018.66 1018.69 1019.38 1019.60 1019.82 1019.88 1020.02 1020.14 1020.36
1015.11 1015.24 1015.34 1015.61 1015.96 1016.30 1016.57 1016.80 1017.30 1017.50 1017.59 1017.70 1017.76 1017.74 1017.88 1017.75 1017.79 1017.95 1017.90 1018.23 1018.39 1018.33 1018.35 1018.51 1018.48 1018.45 1018.60 1018.74 1018.81 1018.80 1018.89 1018.42 1018.66 1018.51 1018.30 1018.67 1019.18 1019.33 1019.46 1019.68 1019.91 1020.13 1020.32
1014.56 1015.02 1015.38 1015.48 1015.75 1016.22 1016.48 1016.76 1016.93 1017.04 1017.07 1017.15 1017.29 1017.50 1017.51 1017.53 1017.78 1017.91 1017.91 1018.19 1018.20 1018.25 1018.30 1018.40 1018.34 1018.42 1018.44 1018.64 1018.60 1018.64 1018.28 1018.22 1018.40 1018.27 1018.09 1018.48 1018.86 1019.02 1019.15 1019.28 1019.41 1019.68 1020.08
1014.15 1014.71 1015.07 1015.31 1015.70 1015.99 1016.23 1016.49 1016.67 1016.79 1016.96 1017.17 1017.46 1017.59 1017.55 1017.60 1017.62 1017.59 1017.51 1017.57 1017.67 1017.84 1017.65 1017.77 1017.93 1018.08 1018.10 1018.44 1018.43 1018.51 1018.19 1018.27 1018.08 1017.98 1017.82 1018.31 1018.56 1018.73 1018.82 1018.97 1019.17 1019.41 1019.62
1013.98 1014.43 1014.81 1015.12 1015.46 1015.77 1015.96 1016.24 1016.33 1016.54 1016.75 1016.94 1017.10 1017.47 1017.62 1017.62 1017.52 1017.58 1017.47 1017.50 1017.72 1017.56 1017.61 1017.68 1017.63 1017.74 1017.85 1017.88 1018.04 1018.25 1018.01 1017.88 1017.80 1017.75 1017.58 1018.08 1018.31 1018.42 1018.38 1018.53 1018.75 1018.95 1019.22
1013.80 1014.18 1014.59 1015.12 1015.50 1015.68 1016.08 1016.12 1016.32 1016.38 1016.53 1016.67 1016.95 1017.11 1017.27 1017.28 1017.34 1017.36 1017.27 1017.40 1017.46 1017.42 1017.36 1017.37 1017.30 1017.32 1017.34 1017.63 1017.80 1017.79 1017.74 1017.60 1017.54 1017.37 1017.20 1017.60 1017.99 1017.95 1018.13 1018.14 1018.24 1018.51 1018.71
1013.48 1013.68 1014.20 1014.71 1015.12 1015.48 1015.76 1015.83 1015.93 1016.03 1016.14 1016.39 1016.55 1016.69 1017.06 1017.06 1017.14 1017.19 1017.24 1017.18 1017.12 1017.24 1017.20 1017.15 1017.16 1017.12 1016.92 1016.94 1017.12 1017.30 1017.29 1017.34 1017.20 1017.07 1016.82 1016.72 1017.18 1017.35 1017.50 1017.73 1017.71 1017.90 1018.14
1012.78 1013.37 1013.80 1014.31 1014.47 1014.95 1015.22 1015.36 1015.57 1015.63 1015.72 1015.93 1016.06 1016.34 1016.56 1016.69 1016.81 1017.01 1016.94 1016.96 1016.92 1016.99 1017.15 1017.10 1016.98 1016.93 1016.90 1016.69 1016.73 1016.50 1016.54 1016.69 1016.71 1016.72 1016.65 1016.53 1016.42 1016.67 1016.90 1016.97 1017.26 1017.32 1017.56
1012.42 1012.72 1013.37 1013.64 1013.86 1014.28 1014.55 1014.77 1014.99 1015.12 1015.26 1015.35 1015.51 1015.74 1016.04 1016.19 1016.40 1016.57 1016.49 1016.48 1016.56 1016.70 1016.69 1016.63 1016.58 1016.49 1016.54 1016.64 1016.48 1016.25 1016.18 1016.16 1016.22 1016.33 1016.19 1016.09 1015.96 1015.90 1015.92 1016.31 1016.64 1016.87 1017.10
1011.86 1012.29 1012.75 1013.18 1013.25 1013.52 1013.88 1014.10 1014.40 1014.58 1014.80 1014.80 1014.96 1015.09 1015.41 1015.75 1015.92 1016.22 1016.00 1015.92 1016.28 1016.22 1016.30 1016.30 1016.22 1016.51 1016.23 1016.29 1016.18 1016.17 1016.10 1015.96 1015.75 1015.62 1015.81 1015.71 1015.65 1015.72 1015.41 1015.41 1016.10 1016.42 1016.66
1011.17 1011.74 1012.12 1012.47 1012.78 1013.13 1013.58 1014.04 1014.20 1014.39 1014.43 1014.39 1014.39 1014.45 1014.66 1014.86 1015.13 1015.49 1015.34 1015.42 1015.82 1015.95 1015.99 1016.06 1016.21 1016.04 1016.10 1015.94 1015.76 1015.22 1015.36 1015.44 1015.28 1015.18 1015.14 1015.04 1014.94 1014.98 1014.87 1014.92 1015.12 1015.40 1015.99
1010.54 1011.00 1011.48 1011.91 1012.09 1012.80 1013.23 1013.55 1013.76 1013.76 1013.90 1014.00 1013.98 1014.22 1014.42 1014.58 1014.82 1015.06 1014.88 1015.00 1015.31 1015.46 1015.35 1015.48 1015.76 1015.84 1015.57 1015.76 1015.72 1015.07 1014.74 1014.70 1014.51 1014.30 1014.27 1014.32 1014.44 1014.35 1014.35 1014.52 1014.64 1014.64 1014.84
1009.43 1010.09 1010.68 1010.94 1011.50 1012.12 1012.52 1012.83 1013.01 1013.14 1013.34 1013.47 1013.46 1013.66 1013.79 1013.83 1013.85 1013.90 1014.16 1014.23 1014.36 1014.47 1014.74 1014.96 1015.26 1014.97 1015.03 1015.27 1015.36 1015.27 1014.23 1013.47 1013.21 1013.42 1013.38 1013.36 1013.47 1013.58 1013.71 1013.80 1013.99 1014.14 1014.26
1008.64 1009.25 1009.78 1010.14 1010.63 1011.28 1011.70 1012.41 1012.73 1012.96 1013.06 1012.82 1012.54 1012.52 1012.52 1012.75 1012.90 1012.98 1013.16 1013.51 1013.56 1013.77 1013.60 1014.00 1014.38 1014.64 1014.22 1014.00 1014.49 1014.47 1013.66 1012.64 1012.50 1012.52 1012.57 1012.68 1012.90 1012.89 1013.00 1012.99 1013.38 1013.59 1013.68
1007.62 1008.44 1008.98 1009.45 1009.99 1010.55 1011.23 1011.44 1011.52 1011.50 1011.55 1011.25 1011.31 1011.41 1011.48 1011.75 1011.88 1012.03 1012.24 1012.46 1012.84 1013.02 1013.20 1013.42 1013.76 1013.80 1013.86 1013.48 1013.42 1013.74 1013.42 1013.29 1013.12 1012.35 1012.04 1012.15 1012.30 1012.33 1012.23 1012.28 1012.40 1012.63 1012.88
1006.84 1007.38 1008.05 1008.81 1009.27 1009.64 1010.14 1010.64 1010.96 1011.08 1010.64 1010.53 1010.69 1010.96 1011.20 1011.19 1011.25 1011.36 1011.59 1011.91 1012.16 1012.56 1012.64 1013.17 1012.94 1013.00 1013.24 1013.22 1013.14 1012.89 1012.92 1012.80 1012.76 1013.05 1011.94 1011.32 1011.10 1011.70 1011.54 1011.42 1011.40 1011.43 1011.76
1006.18 1006.85 1007.52 1008.14 1008.44 1009.44 1009.86 1010.04 1010.11 1010.08 1010.12 1010.10 1010.10 1010.15 1010.08 1010.36 1010.68 1010.81 1010.80 1010.93 1011.01 1011.25 1011.38 1011.06 1012.35 1012.92 1012.77 1012.83 1012.54 1012.51 1012.32 1011.72 1011.30 1012.03 1011.87 1011.38 1010.89 1010.72 1010.78 1010.87 1010.75 1010.69 1010.74
Wind_Speed
12 15 17 18 18 17 17 16 15 15 14 15 14 14 14 12 10 9 9 8 7 8 9 10 11 10 9 9 10 7 5 5 5 6 8 9 10 11 11 11 10 13 12
18 16 17 17 17 17 16 16 16 15 15 14 14 14 13 11 9 6 5 5 4 5 6 6 8 10 9 8 7 7 6 4 2 5 8 8 10 11 11 10 7 12 13
19 16 18 17 16 17 16 15 15 15 15 14 13 12 11 10 8 6 4 2 2 3 3 3 5 5 6 6 6 6 7 7 4 4 4 6 8 9 11 12 11 11 11
18 17 17 17 16 16 16 15 15 15 15 13 12 11 10 9 7 6 4 2 1 1 1 1 1 2 3 3 3 4 5 7 9 7 5 4 7 8 8 11 11 11 11
18 17 17 17 16 17 16 14 14 14 14 13 11 10 9 8 8 7 7 6 3 2 2 2 3 1 2 2 1 1 3 4 7 7 6 4 0 6 5 7 10 10 9
16 16 17 17 18 17 16 15 14 13 12 12 11 10 9 7 6 5 4 4 5 4 3 4 5 5 4 3 2 1 1 1 4 4 4 6 3 2 6 6 5 8 9
16 14 16 15 16 15 16 15 13 12 12 11 10 9 8 8 7 6 6 6 5 5 4 5 6 6 6 5 3 3 3 3 4 3 3 2 3 1 6 7 6 6 7
15 14 14 15 15 15 16 15 13 12 11 11 10 9 9 8 8 7 7 8 7 7 7 6 7 6 6 5 5 4 3 4 5 4 5 4 1 4 4 6 7 8 8
14 14 13 14 14 16 15 15 14 13 12 11 10 10 9 8 9 8 8 8 9 9 9 9 8 9 6 7 6 6 6 5 6 4 5 5 6 8 8 8 9 10 10
13 13 13 12 13 12 13 14 13 13 12 12 11 11 10 10 9 10 8 10 9 11 10 9 8 9 7 8 7 8 8 9 7 5 5 4 8 11 11 11 11 10 10
10 12 12 12 12 12 11 11 13 14 13 12 12 12 10 8 7 8 6 5 8 11 10 9 9 9 8 7 9 10 9 5 7 5 5 3 9 12 14 15 13 12 12
15 14 12 13 12 11 9 9 11 9 9 9 9 8 8 7 6 7 7 8 9 9 10 9 10 9 8 4 5 7 6 6 6 7 6 4 10 12 13 16 15 13 12
15 12 14 13 12 12 10 7 6 6 6 7 9 8 8 6 6 6 4 5 5 6 6 6 6 5 6 5 5 5 6 6 5 6 7 8 11 10 14 16 17 17 15
16 15 14 14 13 13 9 8 8 7 7 6 8 9 7 6 6 6 4 5 5 5 6 6 5 6 7 7 5 6 7 6 5 5 7 9 12 13 15 14 15 16 15
15 15 15 14 13 12 12 8 8 8 7 8 8 9 8 8 7 6 6 6 5 5 6 6 7 7 7 6 5 7 8 8 8 6 5 8 14 14 14 15 16 17 17
13 15 15 15 14 13 12 12 9 9 9 9 8 9 10 8 7 7 7 7 6 6 6 7 7 7 7 6 6 7 7 6 8 9 7 7 9 13 14 16 17 18 17
14 13 15 14 15 15 15 13 10 9 9 9 9 11 11 10 10 9 7 7 7 6 8 7 7 6 7 6 9 8 7 8 8 8 8 8 8 11 15 14 15 17 17
14 15 14 13 15 16 15 12 10 10 9 9 9 8 11 12 11 9 8 8 8 7 6 7 7 7 7 7 7 7 7 6 9 10 9 8 7 7 8 13 14 17 17
15 15 15 16 17 16 15 12 12 12 10 10 9 9 11 11 11 10 9 9 9 7 8 7 7 7 8 7 7 7 6 7 8 8 10 11 11 9 7 7 10 14 17
16 16 15 14 16 15 10 10 9 9 10 10 10 10 12 10 12 11 10 11 9 8 8 8 9 7 8 8 8 10 8 8 7 9 11 10 11 12 11 10 8 9 16
16 16 16 16 15 12 10 9 10 11 10 10 10 13 12 11 11 11 10 10 10 10 11 10 10 10 9 8 8 10 9 12 12 11 9 10 10 12 11 10 8 8 8
19 18 16 17 15 13 11 10 8 7 9 9 9 11 13 14 14 12 12 11 12 10 11 12 10 10 9 8 7 7 10 10 11 11 10 10 13 9 11 12 12 11 11
18 17 16 16 16 14 14 9 8 8 6 8 10 11 13 15 15 15 13 12 11 11 11 11 11 13 11 11 11 7 7 8 7 8 9 9 11 9 10 11 13 13 13
17 15 16 15 15 14 14 13 15 12 12 12 11 11 11 14 15 15 14 13 13 10 10 10 10 11 10 13 10 10 14 11 9 11 9 8 9 11 12 10 12 14 14
14 15 14 13 14 14 14 14 12 13 12 11 10 10 10 8 13 13 12 12 12 10 10 12 12 12 11 12 12 11 9 9 11 10 14 11 10 10 11 11 12 11 14
11 13 12 13 13 11 12 15 16 15 13 12 11 11 9 8 8 11 13 11 12 11 11 10 11 14 12 13 12 13 13 10 9 8 10 13 13 12 11 11 12 12 12
Wind_Direction
158 157 152 142 139 139 138 138 135 136 137 139 136 140 134 136 130 122 118 113 102 96 92 97 102 107 111 112 125 110 89 95 116 122 127 113 111 105 104 109 123 103 101
148 158 156 144 142 145 141 140 135 137 144 144 142 146 143 145 135 133 120 116 108 109 101 94 100 113 119 121 119 115 109 91 131 143 139 131 123 117 118 118 93 99 99
148 155 156 146 148 146 143 143 140 145 149 149 146 149 149 152 152 158 151 145 97 82 86 87 95 94 105 115 125 128 128 126 123 116 126 155 130 132 124 124 120 111 107
144 157 156 152 150 152 149 149 152 155 155 153 152 157 157 162 165 179 185 182 273 26 33 46 49 83 96 107 111 114 118 129 129 123 159 147 144 121 127 128 125 125 122
149 158 156 155 158 157 154 151 158 160 159 162 163 168 170 177 180 188 188 186 214 280 286 306 319 337 359 21 30 69 101 113 136 162 143 149 150 121 136 130 140 138 152
151 159 152 159 163 161 161 160 165 165 166 168 172 175 172 181 184 186 197 193 206 219 265 285 298 304 309 317 334 317 319 194 213 152 149 148 190 30 181 157 141 132 141
154 155 159 167 166 166 168 172 175 175 177 180 185 191 197 207 211 215 221 221 238 233 241 269 275 283 289 297 307 303 301 289 265 227 214 223 215 251 165 171 161 152 155
154 156 162 171 170 171 177 181 185 187 188 189 199 212 221 225 227 224 235 241 235 247 264 254 269 268 270 271 275 275 271 277 238 243 239 245 184 233 214 198 188 179 176
161 164 170 176 178 180 186 191 193 196 200 205 214 221 228 234 235 239 249 257 262 266 256 266 262 275 250 258 269 273 270 257 259 246 251 232 182 225 226 225 218 201 188
168 174 177 180 184 191 189 199 203 207 212 218 222 229 234 239 242 245 253 245 266 278 277 274 262 261 264 254 261 271 276 280 278 268 243 242 205 216 227 231 233 218 204
177 183 188 188 192 193 203 198 206 215 219 222 228 234 235 243 241 253 264 287 264 267 269 267 262 264 261 254 252 252 255 261 262 253 262 168 230 229 231 225 234 231 219
184 189 194 199 200 201 204 211 214 217 221 223 229 238 243 248 256 267 275 269 267 267 269 264 263 264 266 258 252 244 248 253 249 258 258 215 240 237 231 224 223 227 227
189 191 197 200 203 205 210 208 216 217 224 226 233 235 242 253 245 244 255 252 254 241 262 235 252 255 247 230 255 271 264 258 258 263 261 213 240 240 236 229 229 230 226
196 201 198 202 205 210 209 212 217 221 220 227 228 233 242 243 246 250 253 254 248 257 262 261 265 251 253 260 246 254 262 266 261 253 252 229 233 231 236 228 220 218 220
203 206 207 204 209 212 214 219 225 224 225 231 232 228 234 243 247 249 252 255 260 261 264 267 269 280 275 263 259 256 262 261 254 252 255 216 239 240 228 220 214 215 218
209 209 207 211 210 212 218 220 222 226 229 231 233 234 230 240 243 247 253 258 260 262 266 274 276 281 280 281 265 259 260 263 265 261 262 262 234 256 247 229 218 215 218
212 211 212 211 210 213 217 223 224 227 225 230 234 233 230 230 233 243 246 257 259 265 274 263 264 266 273 275 278 274 266 259 262 267 266 266 271 238 252 241 226 215 215
221 214 212 212 211 214 218 220 226 227 230 230 229 232 229 228 231 234 240 245 255 261 267 276 280 269 261 266 274 281 284 269 260 262 263 263 260 274 235 236 222 214 216
223 221 214 213 217 215 216 217 221 225 227 231 229 230 232 234 234 239 243 247 247 251 257 263 273 270 276 265 274 279 267 271 265 262 261 263 261 259 259 233 230 225 221
227 224 220 214 220 215 216 222 234 235 234 237 237 237 231 231 231 231 242 247 244 246 251 256 265 267 267 277 280 279 271 257 255 256 260 262 257 251 250 245 243 234 222
232 226 220 216 216 204 209 216 226 231 233 235 238 244 244 242 246 240 246 248 242 242 242 243 251 260 262 259 277 277 267 265 263 247 246 251 255 246 244 239 236 241 236
227 222 218 219 213 208 210 215 227 225 238 246 245 245 240 239 234 233 235 234 233 235 234 238 235 246 253 257 252 282 282 273 244 251 252 245 245 243 240 234 235 236 237
230 220 218 216 213 211 214 209 218 230 237 235 233 236 230 228 230 230 232 233 232 233 239 231 230 233 253 251 231 225 263 248 280 252 242 243 247 244 246 246 242 240 238
228 223 222 216 214 213 204 209 212 218 228 232 234 234 230 223 226 225 230 232 232 235 241 239 237 241 238 258 254 241 243 266 277 285 265 256 251 243 245 248 244 241 241
225 217 216 215 219 214 201 214 221 235 241 249 243 245 242 236 228 230 230 229 235 243 249 258 240 233 243 252 258 255 241 245 244 252 274 264 254 255 254 249 248 245 239
223 219 216 207 213 209 208 216 223 230 232 242 236 240 235 231 225 225 224 219 218 219 221 213 253 266 251 245 252 255 252 246 225 228 253 268 268 270 270 253 251 246 244